This is the latest recevied weather packets stored in our database for station/object SR4DIG-13. If no packets are shown the sender has not sent any weather packets the latest 10 day(s).
| Time | Temp. | Humidity | Pressure | Rain* | Wind** | Luminosity | Snow |
|---|---|---|---|---|---|---|---|
| 1777752602 | 16.11° C | 34% | 1017.7 hPa | 0 mm | - | - | - |
| 1777751999 | 16.11° C | 33% | 1017.7 hPa | 0 mm | - | - | - |
| 1777751699 | 16.67° C | 32% | 1017.7 hPa | 0 mm | - | - | - |
| 1777751097 | 17.22° C | 32% | 1017.7 hPa | 0 mm | - | - | - |
| 1777749590 | 18.89° C | 30% | 1017.7 hPa | 0 mm | - | - | - |
| 1777749289 | 19.44° C | 27% | 1017.7 hPa | 0 mm | - | - | - |
| 1777748687 | 19.44° C | 27% | 1017.7 hPa | 0 mm | - | - | - |
| 1777748386 | 19.44° C | 27% | 1017.7 hPa | 0 mm | - | - | - |
| 1777747483 | 19.44° C | 27% | 1017.7 hPa | 0 mm | - | - | - |
| 1777746307 | 20.56° C | 25% | 1017.8 hPa | 0 mm | - | - | - |
| 1777746006 | 20.56° C | 25% | 1017.8 hPa | 0 mm | - | - | - |
| 1777745705 | 21.11° C | 24% | 1017.8 hPa | 0 mm | - | - | - |
| 1777744446 | 21.67° C | 24% | 1017.5 hPa | 0 mm | - | - | - |
| 1777743543 | 21.67° C | 23% | 1017.7 hPa | 0 mm | - | - | - |
| 1777742905 | 22.22° C | 23% | 1017.7 hPa | 0 mm | - | - | - |
| 1777742303 | 22.78° C | 23% | 1017.7 hPa | 0 mm | - | - | - |
| 1777741746 | 22.78° C | 23% | 1017.6 hPa | 0 mm | - | - | - |
| 1777741446 | 22.78° C | 23% | 1017.6 hPa | 0 mm | - | - | - |
| 1777739941 | 23.33° C | 23% | 1017.8 hPa | 0 mm | - | - | - |
| 1777739339 | 23.33° C | 22% | 1017.8 hPa | 0 mm | - | - | - |
| 1777738738 | 23.89° C | 22% | 1017.8 hPa | 0 mm | - | - | - |
| 1777738091 | 23.89° C | 22% | 1017.9 hPa | 0 mm | - | - | - |
| 1777737489 | 23.89° C | 22% | 1018 hPa | 0 mm | - | - | - |
| 1777736285 | 23.89° C | 21% | 1018.1 hPa | 0 mm | - | - | - |
| 1777735683 | 24.44° C | 21% | 1018.2 hPa | 0 mm | - | - | - |
* Rain since midnight (hover to see other rain measurements)
** Current wind speed in m/s (hover to see current wind gust speed)